This is the latest recevied weather packets stored in our database for station/object F5MAP-5. If no packets are shown the sender has not sent any weather packets the latest 1 day(s).
| Time | Temp. | Humidity | Pressure | Rain* | Wind** | Luminosity | Snow |
|---|---|---|---|---|---|---|---|
| 1778087530 | 11.67° C | 91% | 1009.2 hPa | 0.76 mm | - | 23 W/m² | - |
| 1778085730 | 11.67° C | 90% | 1009 hPa | 0.76 mm | - | 35 W/m² | - |
| 1778085130 | 12.22° C | 90% | 1008.9 hPa | 0.51 mm | - | 39 W/m² | - |
| 1778083930 | 12.22° C | 90% | 1008.9 hPa | 0.25 mm | - | 39 W/m² | - |
| 1778082730 | 12.22° C | 89% | 1008.9 hPa | 0 mm | - | 44 W/m² | - |
| 1778082130 | 12.78° C | 89% | 1008.8 hPa | 0 mm | - | 46 W/m² | - |
| 1778080930 | 12.78° C | 88% | 1008.7 hPa | 0 mm | - | 63 W/m² | - |
| 1778077931 | 12.78° C | 87% | 1008.4 hPa | 0 mm | - | 97 W/m² | - |
| 1778074934 | 13.33° C | 86% | 1008.1 hPa | 0 mm | - | 149 W/m² | - |
| 1778074334 | 13.33° C | 87% | 1008 hPa | 0 mm | - | 179 W/m² | - |
| 1778073734 | 13.33° C | 87% | 1008 hPa | 0 mm | - | 181 W/m² | - |
| 1778073135 | 13.33° C | 87% | 1007.9 hPa | 0 mm | - | 169 W/m² | - |
| 1778072534 | 13.33° C | 87% | 1007.8 hPa | 0 mm | - | 169 W/m² | - |
| 1778071334 | 13.89° C | 87% | 1007.6 hPa | 0 mm | - | 183 W/m² | - |
| 1778070134 | 14.44° C | 87% | 1007.4 hPa | 0 mm | - | 214 W/m² | - |
| 1778067734 | 15° C | 84% | 1007.3 hPa | 0 mm | - | 204 W/m² | - |
| 1778067134 | 15° C | 83% | 1007.2 hPa | 0 mm | - | 192 W/m² | - |
| 1778061740 | 15.56° C | 80% | 1006.9 hPa | 0 mm | - | 176 W/m² | - |
| 1778059933 | 15.56° C | 77% | 1006.7 hPa | 0 mm | - | 86 W/m² | - |
| 1778059333 | 15.56° C | 77% | 1006.7 hPa | 0 mm | - | 81 W/m² | - |
| 1778057533 | 16.11° C | 78% | 1006.5 hPa | 0 mm | - | 248 W/m² | - |
| 1778056933 | 15.56° C | 79% | 1006.4 hPa | 0 mm | - | 260 W/m² | - |
| 1778056333 | 15.56° C | 80% | 1006.2 hPa | 0 mm | - | 232 W/m² | - |
| 1778055133 | 15.56° C | 81% | 1006.2 hPa | 0 mm | - | 285 W/m² | - |
| 1778054532 | 15.56° C | 82% | 1006.2 hPa | 0 mm | - | 253 W/m² | - |
* Rain latest hour (hover to see other rain measurements)
** Current wind speed in m/s (hover to see current wind gust speed)